Flag for New Zealand Weather past 2 weeks in Auckland, New Zealand

Now
52 °F

Overcast.


Feels Like: 47 °F
Forecast: 49 / 55 °F
Wind: 15 mph from West

Location: Auckland Airport

Current Time: Sep 6, 2015 at 12:30:06 AM

Latest Report: Sep 6, 2015 at 12:00 AM


Visibility: N/A

Pressure: 29.74 "Hg

Humidity: 77%

Dew point: 45 °F

Location of AucklandLocation

Historic Weather in Auckland — Graph

°F

Auckland temperature yesterday

Maximum temperature yesterday: 59 °F (at 11:30 AM)
Minimum temperature yesterday: 50 °F (at 12:00 AM)
Average temperature yesterday: 53 °F

Past Weeks' High & Low Weather Summary

 TemperatureHumidityPressure
High64 °F (Sep 1, 2:30 PM)100% (Aug 22, 3:00 AM)30.54 "Hg (Aug 22, 3:00 AM)
Low41 °F (Aug 28, 7:00 AM)55% (Aug 23, 1:00 PM)29.50 "Hg (Sep 2, 9:30 PM)
Average54 °F85%30.09 "Hg
* Reported Aug 21 11:00 PM — Sep 5 11:30 PM, Auckland, Weather by CustomWeather, © 2015

Note: Actual official high and low records may vary slightly from our data, if they occured in-between our weather recording intervals... More about our weather records

Advertising

Auckland weather history for previous 24 hours

 ConditionsComfort  
Time TempWeatherWind HumidityBarometerVisibility
11:30 PM
Sat, Sep 5
52 °FSprinkles. Passing clouds.12 mph77%29.74 "HgN/A
11:00 PM52 °FPassing clouds.17 mph77%29.74 "HgN/A
10:30 PM52 °FPassing clouds.14 mph77%29.74 "HgN/A
10:00 PM54 °FOvercast.15 mph67%29.74 "HgN/A
9:30 PM52 °FPassing clouds.18 mph77%29.74 "HgN/A
9:00 PM52 °FOvercast.13 mph77%29.74 "HgN/A
8:30 PM54 °FOvercast.16 mph72%29.74 "HgN/A
8:00 PM54 °FOvercast.20 mph67%29.74 "HgN/A
7:30 PM54 °FOvercast.20 mph67%29.74 "HgN/A
7:00 PM54 °FOvercast.17 mph67%29.74 "HgN/A
6:30 PM54 °FOvercast.18 mph67%29.71 "HgN/A
6:00 PM54 °FPassing clouds.17 mph67%29.71 "HgN/A
5:30 PM54 °FOvercast.17 mph67%29.71 "HgN/A
5:00 PM54 °FPartly sunny.18 mph67%29.71 "HgN/A
4:30 PM54 °FOvercast.17 mph67%29.68 "HgN/A
4:00 PM55 °FOvercast.18 mph67%29.68 "HgN/A
3:30 PM55 °FOvercast.16 mph67%29.68 "HgN/A
3:00 PM55 °FOvercast.20 mph67%29.68 "HgN/A
2:30 PM55 °FPartly sunny.18 mph72%29.68 "HgN/A
2:00 PM55 °FMore clouds than sun.17 mph77%29.68 "HgN/A
1:30 PM55 °FCloudy.17 mph77%29.68 "HgN/A
1:00 PM57 °FScattered showers. Broken clouds.16 mph77%29.71 "HgN/A
12:30 PM57 °FBroken clouds.20 mph77%29.71 "HgN/A
12:00 PM55 °FPartly sunny.23 mph88%29.71 "HgN/A
11:30 AM59 °FScattered clouds.10 mph72%29.71 "HgN/A
11:00 AM57 °FPassing clouds.9 mph77%29.71 "HgN/A
10:30 AM55 °FPassing clouds.8 mph82%29.71 "HgN/A
9:30 AM54 °FPartly sunny.13 mph88%29.71 "HgN/A
9:00 AM52 °FBroken clouds.13 mph94%29.68 "HgN/A
8:30 AM50 °FPassing clouds.8 mph100%29.68 "HgN/A
8:00 AM50 °FPassing clouds.10 mph94%29.65 "HgN/A
7:30 AM50 °FSprinkles. Partly sunny.10 mph94%29.65 "HgN/A
7:00 AM50 °FDrizzle. Partly sunny.10 mph94%29.65 "HgN/A
6:30 AM50 °FSprinkles. More clouds than sun.8 mph94%29.65 "HgN/A
6:00 AM50 °FDrizzle. More clouds than sun.8 mph94%29.65 "HgN/A
5:30 AM50 °FLight rain. Overcast.9 mph94%29.65 "HgN/A
5:00 AM50 °FLight rain. Overcast.10 mph94%29.65 "HgN/A
4:30 AM50 °FLight rain. Overcast.9 mph94%29.62 "HgN/A
4:00 AM50 °FLight rain. Passing clouds.8 mph100%29.65 "HgN/A
3:30 AM50 °FLight rain. Passing clouds.10 mph94%29.65 "HgN/A
3:00 AM50 °FLight rain. Mostly cloudy.10 mph100%29.65 "HgN/A
2:30 AM50 °FLight rain. Mostly cloudy.8 mph100%29.68 "HgN/A
2:00 AM50 °FLight rain. Passing clouds.6 mph100%29.68 "HgN/A
1:30 AM50 °FLight rain. Overcast.6 mph94%29.68 "HgN/A
1:00 AM50 °FLight rain. Overcast.2 mph94%29.68 "HgN/A
12:30 AM50 °FSprinkles. Passing clouds.1 mph94%29.68 "HgN/A
12:00 AM50 °FSprinkles. Passing clouds.3 mph94%29.68 "HgN/A
Weather by CustomWeather, © 2015

See weather overviewHow to use our weather pages